Location: ??????
(55.6130°N, 37.7882°E)
Time: 10:38:23
(UTC+00:00)

CZ-2C R/B - Pass Details

Date: 14 April 2024
Orbit: 666 x 778 km, 98.4° (Epoch: 18 May)

Event Time Altitude Azimuth Distance (km) Brightness Sun altitude
Rises 00:43:02 0° 18° (NNE) 3,259 6.8 -13.5°
Reaches altitude 10° 00:45:27 10° 25° (NNE) 2,336 6.1 -13.2°
Maximum altitude 00:50:25 46° 98° (E) 1,049 3.5 -12.7°
Drops below altitude 10° 00:55:22 10° 172° (S) 2,328 4.7 -12.1°
Sets 00:57:46 0° 178° (S) 3,246 5.4 -11.8°
